Location: Glencliff
(36.1226°N, 86.7183°W)
Time: 00:59:09
(UTC+00:00)

ADEOS - Pass Details

Date: 25 August 2019
Orbit: 792 x 795 km, 98.8° (Epoch: 17 October)

Event Time Altitude Azimuth Distance (km) Brightness Sun altitude
Rises 10:03:06 0° 4° (N) 3,300 7.2 -14.1°
Reaches altitude 10° 10:05:34 10° 356° (N) 2,366 6.3 -13.7°
Maximum altitude 10:10:20 38° 290° (WNW) 1,206 4.2 -12.8°
Enters shadow 10:14:12 15° 229° (SW) 2,037 5.1 -12.1°
